Location: Greenwich
(51.4790°N, 0.0090°E)
Time: 00:48:22
(UTC+01:00)

Transit 4A - Pass Details

Date: 27 April 2024
Orbit: 871 x 971 km, 66.8° (Epoch: 18 May)

Event Time Altitude Azimuth Distance (km) Brightness Sun altitude
Rises 20:47:00 0° 320° (NW) 3,471 12.5 -4.9°
Reaches altitude 10° 20:49:30 10° 317° (NW) 2,530 11.7 -5.3°
Maximum altitude 20:55:14 61° 239° (WSW) 993 8.3 -6.0°
Drops below altitude 10° 21:01:00 10° 160° (SSE) 2,543 9.7 -6.8°
Enters shadow 21:02:57 - 158° (SSE) 3,272 10.3 -7.0°
